Zurück zum Katalog

FENGYUN 1C DEB

AktivSSO
NORAD 29854·DEBRIS·🇨🇳 China

Gestartet May 10, 1999 von Taiyuan Satellite Launch Center

Loading…

Nächste Überflüge (nächste 24 Stunden)

TLE

AktuellSource: Space-Track

Epoche: Sep 14, 2026, 22:05 UTC

1 29854U 99025EY  26257.92019851  .00000174  00000-0  17993-3 0  9994
2 29854  98.9645  50.6616 0146548  27.3665 126.9733 13.83549682991629

Verfolge FENGYUN 1C DEB in Echtzeit mit AllMySat

Download on the App Store